Salisbury, MD

7:07 AM EDT on July 28, 2016 (GMT -0400)
Salisbury-Ocean City Wicomico Regional

Weather History for KSBY - December, 2012

Change the Weather History Date:

Sunday, December 2, 2012

  Actual Average Record
Temperature  
Mean Temperature 49 °F 43 °F  
Max Temperature 62 °F 53 °F 67 °F (1970)
Min Temperature 36 °F 33 °F 10 °F (1967)
Degree Days  
Heating Degree Days 16 22  
Month to date heating degree days 33 44  
Since 1 July heating degree days 777 862  
Cooling Degree Days 0 0  
Month to date cooling degree days 0 0  
Year to date cooling degree days 1732 1153  
Moisture  
Dew Point 40 °F    
Average Humidity 74    
Maximum Humidity 92    
Minimum Humidity 56    
Precipitation  
Precipitation T in 0.13 in 1.31 in (1986)
Month to date precipitation T 0.26  
Year to date precipitation 39.97 42.23  
Snow  
Snow 0.00 in 0.10 in 0.40 in (1952)
Month to date snowfall 0.0 0.1  
Since 1 July snowfall 0.0 0.3  
Snow Depth 0.00 in    
Sea Level Pressure  
Sea Level Pressure 30.34 in    
Wind  
Wind Speed 6 mph (SSE)    
Max Wind Speed 14 mph    
Max Gust Speed 18 mph    
Visibility 4 miles    
Events Fog    
T = Trace of Precipitation, MM = Missing Value Source: NWS Daily Summary

Daily Weather History Graph

Daily Weather History Graph

Search for Another Location

Airport or City:

Trip Planner

Search our weather history database for the weather conditions in past years. The results will help you decide how hot, cold, wet, or windy it might be!

Date:

Astronomy

Dec. 02, 2012 Rise Set
Actual Time 7:01 AM EST 4:41 PM EST
Civil Twilight 6:32 AM EST 5:10 PM EST
Nautical Twilight 5:59 AM EST 5:43 PM EST
Astronomical Twilight 5:27 AM EST 6:15 PM EST
Moon 8:25 PM EST (12/2) 9:51 AM EST (12/2)
Length of Visible Light 10h 38m
Length of Day
9h 40m
Waning Gibbous, 86% of the Moon is Illuminated
Dec 2
Waning Gibbous
Dec 6
Last Quarter
Dec 13
New
Dec 20
First Quarter
Dec 28
Full

Hourly Weather History & Observations

Time (EST) Temp. Windchill Dew Point Humidity Pressure Visibility Wind Dir Wind Speed Gust Speed Precip Events Conditions
12:54 AM 37.9 °F - 36.0 °F 93% 30.40 in 0.2 mi Calm Calm - N/A Fog Fog
1:54 AM 37.0 °F - 35.1 °F 93% 30.40 in 0.2 mi Calm Calm - N/A Fog Fog
2:54 AM 36.0 °F - 33.1 °F 89% 30.39 in 0.2 mi Calm Calm - N/A Fog Fog
3:39 AM 35.6 °F - 33.8 °F 93% 30.38 in 0.2 mi Calm Calm - N/A Fog Fog
3:54 AM 36.0 °F - 34.0 °F 93% 30.38 in 0.2 mi Calm Calm - N/A Fog Fog
4:14 AM 37.4 °F - 33.8 °F 87% 30.37 in 0.5 mi Calm Calm - N/A Fog Fog
4:27 AM 37.4 °F - 35.6 °F 93% 30.37 in 1.8 mi Calm Calm - N/A   Overcast
4:35 AM 37.4 °F - 35.6 °F 93% 30.37 in 2.5 mi Calm Calm - N/A   Overcast
4:42 AM 37.4 °F - 35.6 °F 93% 30.37 in 4.0 mi Calm Calm - N/A   Overcast
4:50 AM 37.4 °F - 35.6 °F 93% 30.37 in 1.8 mi Calm Calm - N/A   Overcast
4:54 AM 37.9 °F - 35.1 °F 89% 30.38 in 0.8 mi Calm Calm - N/A   Overcast
5:03 AM 37.4 °F - 35.6 °F 93% 30.38 in 0.2 mi Calm Calm - N/A Fog Fog
5:23 AM 39.2 °F - 35.6 °F 87% 30.38 in 0.2 mi Calm Calm - N/A Fog Fog
5:54 AM 39.0 °F - 36.0 °F 89% 30.39 in 0.2 mi Calm Calm - N/A Fog Fog
6:54 AM 37.9 °F - 36.0 °F 93% 30.40 in 0.2 mi Calm Calm - N/A Fog Fog
7:28 AM 37.4 °F - 35.6 °F 93% 30.40 in 0.5 mi Calm Calm - N/A Fog Fog
7:45 AM 39.2 °F 37.0 °F 35.6 °F 87% 30.39 in 0.2 mi ESE 3.5 mph - N/A Fog Fog
7:54 AM 39.0 °F - 37.0 °F 93% 30.41 in 0.2 mi Calm Calm - N/A Fog Fog
8:18 AM 41.0 °F 39.0 °F 37.4 °F 87% 30.40 in 0.2 mi East 3.5 mph - N/A Fog Fog
8:26 AM 41.0 °F 39.0 °F 37.4 °F 87% 30.40 in 0.2 mi ESE 3.5 mph - N/A Fog Fog
8:36 AM 41.0 °F 39.0 °F 37.4 °F 87% 30.40 in 0.2 mi SE 3.5 mph - N/A Fog Fog
8:43 AM 42.8 °F 41.1 °F 39.2 °F 87% 30.39 in 0.5 mi SE 3.5 mph - N/A Fog Fog
8:54 AM 42.1 °F 40.2 °F 39.9 °F 92% 30.40 in 0.8 mi ESE 3.5 mph - N/A   Overcast
9:02 AM 42.8 °F 41.1 °F 39.2 °F 87% 30.39 in 1.2 mi SE 3.5 mph - N/A   Overcast
9:10 AM 42.8 °F - 41.0 °F 93% 30.39 in 3.0 mi Calm Calm - N/A   Overcast
9:37 AM 44.6 °F 43.1 °F 42.8 °F 93% 30.39 in 5.0 mi SE 3.5 mph - N/A   Partly Cloudy
9:54 AM 46.0 °F 43.9 °F 43.0 °F 89% 30.39 in 8.0 mi SSE 4.6 mph - N/A   Clear
10:54 AM 51.1 °F - 45.0 °F 80% 30.35 in 10.0 mi South 8.1 mph - N/A   Clear
11:54 AM 55.0 °F - 45.0 °F 69% 30.32 in 10.0 mi South 6.9 mph - N/A   Clear
12:54 PM 57.0 °F - 45.0 °F 64% 30.30 in 10.0 mi South 11.5 mph - N/A   Clear
1:54 PM 60.1 °F - 46.0 °F 60% 30.25 in 10.0 mi South 9.2 mph - N/A   Clear
2:54 PM 62.1 °F - 46.9 °F 58% 30.23 in 10.0 mi South 9.2 mph - N/A   Clear
3:54 PM 60.1 °F - 46.9 °F 62% 30.22 in 10.0 mi South 8.1 mph - N/A   Clear
4:54 PM 55.9 °F - 46.9 °F 72% 30.21 in 10.0 mi South 8.1 mph - N/A   Clear
5:54 PM 54.0 °F - 46.0 °F 75% 30.21 in 10.0 mi South 8.1 mph - N/A   Clear
6:54 PM 54.0 °F - 46.0 °F 75% 30.22 in 10.0 mi South 8.1 mph - N/A   Clear
7:54 PM 55.0 °F - 46.0 °F 72% 30.22 in 10.0 mi South 9.2 mph - 0.00 in   Mostly Cloudy
8:54 PM 55.9 °F - 46.9 °F 72% 30.21 in 10.0 mi South 8.1 mph - N/A   Overcast
9:54 PM 57.9 °F - 46.9 °F 67% 30.20 in 10.0 mi SSW 11.5 mph - N/A   Overcast
10:54 PM 59.0 °F - 46.9 °F 64% 30.20 in 10.0 mi SSW 13.8 mph - N/A   Overcast
11:54 PM 57.9 °F - 48.0 °F 70% 30.19 in 10.0 mi SSW 10.4 mph - 0.00 in   Overcast